Location: McFarlands Corners
(41.4117°N, 81.3382°W)
Time: 08:32:50
(UTC+00:00)

Vanguard 1 Rocket - Pass Details

Date: 23 February 2026
Orbit: 653 x 4214 km, 34.3° (Epoch: 12 March)

Event Time Altitude Azimuth Distance (km) Brightness Sun altitude
Rises 20:00:34 0° 265° (W) 4,347 11.5 29.5°
Reaches altitude 10° 20:02:55 10° 261° (W) 3,674 11.4 29.2°
Maximum altitude 20:12:47 63° 183° (S) 2,531 10.5 27.9°
Drops below altitude 10° 20:32:10 10° 109° (ESE) 6,735 11.6 25.3°
Sets 20:38:22 0° 107° (ESE) 8,118 11.9 24.4°
